| time (UTC) | temp C | wind direction | speed KPH | gust KPH | rain 1hr cm | rain 24hr cm | rain mn cm | humidity % | barometer mb |
| 20260502194803 | 24 | 337 | 0.0 | 3.2 | 0.00 | 0.13 | 0.00 | 99 | 1007.2 |
| 20260502194403 | 24 | 337 | 0.0 | 3.2 | 0.00 | 0.13 | 0.00 | 99 | 1007.2 |
| 20260502194203 | 25 | 337 | 0.0 | 3.2 | 0.00 | 0.13 | 0.00 | 99 | 1007.4 |
| 20260502194003 | 25 | 337 | 0.0 | 3.2 | 0.00 | 0.13 | 0.00 | 99 | 1007.3 |
| 20260502193803 | 24 | 337 | 0.0 | 3.2 | 0.00 | 0.13 | 0.00 | 99 | 1007.4 |
| 20260502193603 | 24 | 337 | 1.6 | 3.2 | 0.00 | 0.13 | 0.00 | 99 | 1007.3 |
| 20260502193203 | 24 | 337 | 0.0 | 3.2 | 0.00 | 0.13 | 0.00 | 99 | 1007.3 |
| 20260502193003 | 24 | 337 | 0.0 | 3.2 | 0.00 | 0.13 | 0.00 | 99 | 1007.4 |
| 20260502192803 | 24 | 337 | 0.0 | 3.2 | 0.00 | 0.13 | 0.00 | 99 | 1007.3 |
| 20260502192403 | 24 | 337 | 0.0 | 3.2 | 0.00 | 0.13 | 0.00 | 99 | 1007.4 |
| 20260502192203 | 24 | 337 | 0.0 | 3.2 | 0.00 | 0.13 | 0.00 | 99 | 1007.3 |
| 20260502192003 | 24 | 337 | 0.0 | 3.2 | 0.00 | 0.13 | 0.00 | 99 | 1007.5 |
| 20260502191803 | 24 | 337 | 0.0 | 3.2 | 0.00 | 0.13 | 0.00 | 99 | 1007.4 |
| 20260502191603 | 24 | 337 | 1.6 | 3.2 | 0.00 | 0.13 | 0.00 | 99 | 1007.5 |
| 20260502191403 | 24 | 337 | 1.6 | 3.2 | 0.00 | 0.13 | 0.00 | 99 | 1007.5 |
| 20260502191203 | 24 | 337 | 0.0 | 3.2 | 0.00 | 0.13 | 0.00 | 99 | 1007.4 |
| 20260502191003 | 24 | 337 | 0.0 | 3.2 | 0.00 | 0.13 | 0.00 | 99 | 1007.3 |
| 20260502190803 | 25 | 337 | 0.0 | 3.2 | 0.00 | 0.13 | 0.00 | 99 | 1007.4 |
| 20260502190603 | 25 | 337 | 0.0 | 3.2 | 0.00 | 0.13 | 0.00 | 99 | 1007.2 |
| 20260502190403 | 25 | 337 | 0.0 | 3.2 | 0.00 | 0.13 | 0.00 | 99 | 1007.3 |
| 20260502190203 | 24 | 337 | 1.6 | 3.2 | 0.00 | 0.13 | 0.00 | 99 | 1007.4 |
| 20260502190004 | 24 | 337 | 1.6 | 3.2 | 0.00 | 0.13 | 0.00 | 99 | 1007.5 |
| 20260502185803 | 24 | 337 | 0.0 | 3.2 | 0.00 | 0.13 | 0.00 | 99 | 1007.4 |
| 20260502185603 | 24 | 337 | 0.0 | 3.2 | 0.00 | 0.13 | 0.00 | 99 | 1007.2 |
| 20260502185403 | 24 | 337 | 0.0 | 3.2 | 0.00 | 0.13 | 0.00 | 99 | 1007.4 |
| 20260502185203 | 24 | 337 | 0.0 | 3.2 | 0.00 | 0.13 | 0.00 | 99 | 1007.5 |
| 20260502185003 | 24 | 337 | 0.0 | 3.2 | 0.00 | 0.13 | 0.00 | 99 | 1007.3 |
| 20260502184803 | 24 | 337 | 0.0 | 3.2 | 0.00 | 0.13 | 0.00 | 98 | 1007.5 |
| 20260502184603 | 24 | 337 | 0.0 | 3.2 | 0.00 | 0.13 | 0.00 | 98 | 1007.6 |
| 20260502184403 | 24 | 337 | 1.6 | 3.2 | 0.00 | 0.13 | 0.00 | 98 | 1007.5 |
| 20260502184203 | 24 | 337 | 3.2 | 3.2 | 0.00 | 0.13 | 0.00 | 98 | 1007.5 |
| 20260502184003 | 24 | 337 | 1.6 | 3.2 | 0.00 | 0.13 | 0.00 | 98 | 1007.7 |
| 20260502183803 | 24 | 337 | 0.0 | 3.2 | 0.00 | 0.13 | 0.00 | 98 | 1007.7 |
| 20260502183603 | 24 | 337 | 1.6 | 3.2 | 0.00 | 0.13 | 0.00 | 98 | 1007.6 |
| 20260502183403 | 24 | 0 | 0.0 | 0.0 | 0.00 | 0.13 | 0.00 | 98 | 1007.6 |
| 20260502183203 | 24 | 0 | 0.0 | 0.0 | 0.00 | 0.13 | 0.00 | 98 | 1007.7 |
| 20260502183003 | 24 | 0 | 0.0 | 0.0 | 0.00 | 0.13 | 0.00 | 98 | 1007.7 |
| 20260502182803 | 24 | 0 | 0.0 | 0.0 | 0.00 | 0.13 | 0.00 | 98 | 1007.8 |
| 20260502182603 | 24 | 0 | 0.0 | 0.0 | 0.00 | 0.13 | 0.00 | 98 | 1008.0 |
| 20260502182403 | 24 | 0 | 0.0 | 0.0 | 0.00 | 0.13 | 0.00 | 98 | 1007.8 |
| 20260502182203 | 24 | 0 | 0.0 | 0.0 | 0.00 | 0.13 | 0.00 | 98 | 1007.8 |
| 20260502182003 | 24 | 0 | 0.0 | 0.0 | 0.00 | 0.13 | 0.00 | 98 | 1007.8 |
| 20260502181803 | 24 | 0 | 0.0 | 0.0 | 0.00 | 0.13 | 0.00 | 98 | 1007.9 |
| 20260502181603 | 24 | 0 | 0.0 | 0.0 | 0.00 | 0.13 | 0.00 | 98 | 1007.8 |
| 20260502181403 | 24 | 0 | 0.0 | 0.0 | 0.00 | 0.13 | 0.00 | 98 | 1008.0 |
| 20260502181203 | 24 | 0 | 0.0 | 0.0 | 0.00 | 0.13 | 0.00 | 98 | 1007.9 |
| 20260502181003 | 25 | 0 | 0.0 | 0.0 | 0.00 | 0.13 | 0.00 | 98 | 1007.9 |
| 20260502180803 | 25 | 0 | 0.0 | 0.0 | 0.00 | 0.13 | 0.00 | 98 | 1008.0 |
| 20260502180603 | 24 | 337 | 0.0 | 3.2 | 0.00 | 0.13 | 0.00 | 99 | 1008.2 |
| 20260502180403 | 24 | 337 | 0.0 | 3.2 | 0.00 | 0.13 | 0.00 | 98 | 1008.1 |
| 20260502180203 | 24 | 337 | 0.0 | 3.2 | 0.00 | 0.13 | 0.00 | 98 | 1008.2 |
| 20260502170400 | 25 | 270 | 1.6 | 3.2 | 0.00 | 0.13 | 0.00 | 98 | 1008.7 |
| 20260502170200 | 25 | 270 | 1.6 | 3.2 | 0.00 | 0.13 | 0.00 | 98 | 1008.8 |
| 20260502164201 | 25 | 270 | 0.0 | 3.2 | 0.00 | 0.13 | 0.00 | 98 | 1008.9 |
| 20260502164000 | 25 | 270 | 0.0 | 3.2 | 0.00 | 0.13 | 0.00 | 98 | 1008.8 |
| 20260502163800 | 25 | 270 | 0.0 | 3.2 | 0.00 | 0.13 | 0.00 | 98 | 1009.0 |
| 20260502163600 | 25 | 270 | 0.0 | 3.2 | 0.00 | 0.13 | 0.00 | 98 | 1009.1 |
| 20260502163400 | 25 | 270 | 0.0 | 3.2 | 0.00 | 0.13 | 0.00 | 98 | 1009.0 |
| 20260502163200 | 25 | 270 | 0.0 | 3.2 | 0.00 | 0.13 | 0.00 | 98 | 1009.1 |
| 20260502163000 | 25 | 270 | 3.2 | 3.2 | 0.00 | 0.13 | 0.00 | 98 | 1009.3 |
| 20260502162800 | 25 | 270 | 3.2 | 3.2 | 0.00 | 0.13 | 0.00 | 98 | 1009.2 |
| 20260502162601 | 25 | 0 | 0.0 | 0.0 | 0.00 | 0.13 | 0.00 | 98 | 1009.2 |
| 20260502162401 | 25 | 0 | 0.0 | 0.0 | 0.00 | 0.13 | 0.00 | 98 | 1009.2 |
| 20260502162200 | 25 | 0 | 0.0 | 0.0 | 0.00 | 0.13 | 0.00 | 98 | 1009.2 |
| 20260502162000 | 25 | 0 | 0.0 | 0.0 | 0.00 | 0.13 | 0.00 | 98 | 1009.3 |
| 20260502161800 | 25 | 270 | 0.0 | 3.2 | 0.00 | 0.13 | 0.00 | 98 | 1009.0 |
| 20260502161600 | 25 | 270 | 0.0 | 3.2 | 0.00 | 0.13 | 0.00 | 98 | 1009.1 |
| 20260502161400 | 25 | 270 | 0.0 | 3.2 | 0.00 | 0.13 | 0.00 | 98 | 1009.1 |
| 20260502161200 | 25 | 270 | 0.0 | 3.2 | 0.00 | 0.13 | 0.00 | 98 | 1009.1 |
| 20260502161001 | 25 | 270 | 0.0 | 3.2 | 0.00 | 0.13 | 0.00 | 98 | 1009.1 |
| 20260502160800 | 25 | 270 | 0.0 | 3.2 | 0.00 | 0.13 | 0.00 | 98 | 1009.1 |
| 20260502160600 | 25 | 270 | 1.6 | 3.2 | 0.00 | 0.13 | 0.00 | 97 | 1009.3 |
| 20260502160400 | 25 | 270 | 3.2 | 3.2 | 0.00 | 0.13 | 0.00 | 97 | 1009.3 |
| 20260502160200 | 25 | 270 | 3.2 | 3.2 | 0.00 | 0.13 | 0.00 | 97 | 1009.2 |
| 20260502152201 | 25 | 270 | 1.6 | 3.2 | 0.00 | 0.13 | 0.13 | 97 | 1009.4 |
| 20260502152001 | 25 | 270 | 3.2 | 3.2 | 0.00 | 0.13 | 0.13 | 97 | 1009.1 |
| 20260502151801 | 25 | 0 | 0.0 | 0.0 | 0.00 | 0.13 | 0.13 | 97 | 1009.3 |
| 20260502151601 | 25 | 0 | 0.0 | 0.0 | 0.00 | 0.13 | 0.13 | 97 | 1009.1 |
| 20260502151401 | 25 | 0 | 0.0 | 0.0 | 0.00 | 0.13 | 0.13 | 97 | 1009.2 |
| 20260502151201 | 25 | 0 | 0.0 | 0.0 | 0.00 | 0.13 | 0.13 | 97 | 1009.1 |
| 20260502151001 | 25 | 0 | 0.0 | 0.0 | 0.00 | 0.13 | 0.13 | 97 | 1009.1 |
| 20260502150801 | 25 | 0 | 0.0 | 0.0 | 0.00 | 0.13 | 0.13 | 97 | 1009.1 |
| 20260502150601 | 25 | 270 | 0.0 | 3.2 | 0.00 | 0.13 | 0.13 | 97 | 1009.0 |
| 20260502150401 | 25 | 270 | 0.0 | 3.2 | 0.00 | 0.13 | 0.13 | 97 | 1009.1 |
| 20260502150201 | 25 | 270 | 0.0 | 3.2 | 0.00 | 0.13 | 0.13 | 97 | 1009.1 |
| 20260502130601 | 26 | 270 | 0.0 | 3.2 | 0.00 | 0.13 | 0.13 | 95 | 1007.8 |
| 20260502130401 | 26 | 270 | 0.0 | 3.2 | 0.00 | 0.13 | 0.13 | 95 | 1007.8 |
| 20260502130201 | 26 | 270 | 0.0 | 3.2 | 0.00 | 0.13 | 0.13 | 95 | 1008.0 |
| 20260502123801 | 26 | 270 | 1.6 | 3.2 | 0.00 | 0.13 | 0.13 | 94 | 1007.3 |
| 20260502123601 | 26 | 270 | 0.0 | 3.2 | 0.00 | 0.13 | 0.13 | 94 | 1007.3 |
| 20260502123401 | 26 | 270 | 1.6 | 3.2 | 0.00 | 0.13 | 0.13 | 94 | 1007.4 |
| 20260502123201 | 26 | 282 | 1.6 | 3.2 | 0.00 | 0.13 | 0.13 | 94 | 1007.2 |
| 20260502123001 | 26 | 303 | 1.6 | 3.2 | 0.00 | 0.13 | 0.13 | 93 | 1007.2 |
| 20260502122801 | 26 | 307 | 0.0 | 3.2 | 0.00 | 0.13 | 0.13 | 93 | 1007.1 |
| 20260502122601 | 26 | 305 | 0.0 | 3.2 | 0.00 | 0.13 | 0.13 | 93 | 1007.1 |
| 20260502122401 | 27 | 308 | 0.0 | 3.2 | 0.00 | 0.13 | 0.13 | 93 | 1007.2 |
| 20260502122201 | 27 | 311 | 3.2 | 3.2 | 0.00 | 0.13 | 0.13 | 93 | 1006.8 |
| 20260502122001 | 27 | 307 | 3.2 | 3.2 | 0.00 | 0.13 | 0.13 | 93 | 1007.2 |
| 20260502121801 | 27 | 309 | 3.2 | 3.2 | 0.00 | 0.13 | 0.13 | 93 | 1007.0 |
| 20260502121601 | 27 | 314 | 1.6 | 3.2 | 0.00 | 0.13 | 0.13 | 93 | 1007.0 |
| 20260502121401 | 27 | 315 | 1.6 | 3.2 | 0.00 | 0.13 | 0.13 | 93 | 1006.8 |
| 20260502121201 | 27 | 315 | 0.0 | 3.2 | 0.00 | 0.13 | 0.13 | 93 | 1007.2 |
| 20260502121001 | 27 | 315 | 0.0 | 3.2 | 0.00 | 0.13 | 0.13 | 93 | 1006.9 |
| 20260502120801 | 27 | 315 | 3.2 | 3.2 | 0.00 | 0.13 | 0.13 | 92 | 1007.0 |
| 20260502120602 | 27 | 315 | 3.2 | 3.2 | 0.00 | 0.13 | 0.13 | 92 | 1006.8 |
| 20260502120401 | 27 | 315 | 3.2 | 3.2 | 0.00 | 0.13 | 0.13 | 92 | 1006.9 |
| 20260502120201 | 27 | 315 | 1.6 | 3.2 | 0.00 | 0.13 | 0.13 | 92 | 1006.6 |
| 20260502115801 | 27 | 320 | 1.6 | 3.2 | 0.00 | 0.13 | 0.13 | 92 | 1006.6 |
| 20260502115601 | 27 | 321 | 1.6 | 3.2 | 0.00 | 0.13 | 0.13 | 91 | 1006.3 |
| 20260502115401 | 27 | 323 | 3.2 | 3.2 | 0.00 | 0.13 | 0.13 | 91 | 1006.4 |
| 20260502115201 | 27 | 329 | 3.2 | 3.2 | 0.00 | 0.13 | 0.13 | 90 | 1006.5 |
| 20260502115001 | 27 | 337 | 3.2 | 3.2 | 0.00 | 0.13 | 0.13 | 90 | 1006.4 |
| 20260502114801 | 27 | 337 | 0.0 | 3.2 | 0.00 | 0.13 | 0.13 | 90 | 1006.3 |
| 20260502114601 | 27 | 337 | 0.0 | 3.2 | 0.00 | 0.13 | 0.13 | 90 | 1006.5 |
| 20260502114401 | 27 | 337 | 0.0 | 3.2 | 0.00 | 0.13 | 0.13 | 90 | 1006.4 |
| 20260502114201 | 27 | 337 | 0.0 | 3.2 | 0.00 | 0.13 | 0.13 | 89 | 1006.3 |
| 20260502114001 | 27 | 337 | 0.0 | 3.2 | 0.00 | 0.13 | 0.13 | 89 | 1006.5 |
| 20260502113801 | 28 | 337 | 0.0 | 3.2 | 0.00 | 0.13 | 0.13 | 89 | 1006.1 |
| 20260502113601 | 28 | 0 | 0.0 | 0.0 | 0.00 | 0.13 | 0.13 | 88 | 1006.2 |
| 20260502113401 | 28 | 337 | 0.0 | 3.2 | 0.00 | 0.13 | 0.13 | 88 | 1006.2 |
| 20260502113201 | 28 | 337 | 0.0 | 3.2 | 0.00 | 0.13 | 0.13 | 88 | 1006.2 |
| 20260502113001 | 28 | 337 | 0.0 | 3.2 | 0.00 | 0.13 | 0.13 | 88 | 1006.1 |
| 20260502112801 | 28 | 337 | 0.0 | 3.2 | 0.00 | 0.13 | 0.13 | 88 | 1006.1 |
| 20260502112601 | 28 | 337 | 0.0 | 3.2 | 0.00 | 0.13 | 0.13 | 88 | 1006.2 |
| 20260502112401 | 28 | 337 | 1.6 | 3.2 | 0.00 | 0.13 | 0.13 | 88 | 1006.1 |
| 20260502112202 | 28 | 337 | 3.2 | 3.2 | 0.00 | 0.13 | 0.13 | 88 | 1006.2 |
| 20260502112001 | 28 | 337 | 1.6 | 3.2 | 0.00 | 0.13 | 0.13 | 87 | 1006.1 |
| 20260502111801 | 28 | 337 | 1.6 | 3.2 | 0.00 | 0.13 | 0.13 | 87 | 1006.1 |
| 20260502111601 | 28 | 337 | 0.0 | 3.2 | 0.00 | 0.13 | 0.13 | 87 | 1006.0 |
| 20260502111401 | 28 | 0 | 0.0 | 0.0 | 0.00 | 0.13 | 0.13 | 86 | 1006.1 |
| 20260502111201 | 28 | 0 | 0.0 | 0.0 | 0.00 | 0.13 | 0.13 | 86 | 1006.1 |
| 20260502111001 | 28 | 337 | 0.0 | 3.2 | 0.00 | 0.13 | 0.13 | 86 | 1006.2 |
| 20260502110801 | 28 | 337 | 0.0 | 3.2 | 0.00 | 0.13 | 0.13 | 86 | 1005.9 |
| 20260502110602 | 28 | 337 | 0.0 | 3.2 | 0.00 | 0.13 | 0.13 | 86 | 1006.0 |
| 20260502110401 | 28 | 340 | 0.0 | 3.2 | 0.00 | 0.13 | 0.13 | 86 | 1005.9 |
| 20260502110201 | 28 | 341 | 0.0 | 3.2 | 0.00 | 0.13 | 0.13 | 86 | 1005.9 |
| 20260502110001 | 28 | 342 | 1.6 | 3.2 | 0.00 | 0.13 | 0.13 | 85 | 1005.8 |
| 20260502105801 | 28 | 345 | 3.2 | 3.2 | 0.00 | 0.13 | 0.13 | 85 | 1005.7 |
| 20260502105601 | 29 | 352 | 1.6 | 3.2 | 0.00 | 0.13 | 0.13 | 84 | 1005.7 |
| 20260502105401 | 29 | 360 | 1.6 | 3.2 | 0.00 | 0.13 | 0.13 | 84 | 1005.8 |
| 20260502105201 | 29 | 360 | 0.0 | 3.2 | 0.00 | 0.13 | 0.13 | 83 | 1005.8 |
| 20260502105001 | 29 | 360 | 0.0 | 3.2 | 0.00 | 0.13 | 0.13 | 83 | 1005.8 |
| 20260502104801 | 29 | 360 | 0.0 | 3.2 | 0.00 | 0.13 | 0.13 | 83 | 1005.7 |
| 20260502104601 | 29 | 360 | 1.6 | 3.2 | 0.00 | 0.13 | 0.13 | 83 | 1005.7 |
| 20260502104401 | 29 | 360 | 0.0 | 3.2 | 0.00 | 0.13 | 0.13 | 83 | 1005.5 |
| 20260502104201 | 29 | 360 | 0.0 | 3.2 | 0.00 | 0.13 | 0.13 | 83 | 1005.7 |
| 20260502104001 | 29 | 4 | 0.0 | 3.2 | 0.00 | 0.13 | 0.13 | 82 | 1005.6 |
| 20260502103801 | 29 | 13 | 0.0 | 3.2 | 0.00 | 0.13 | 0.13 | 82 | 1005.8 |
| 20260502103601 | 29 | 24 | 0.0 | 3.2 | 0.00 | 0.13 | 0.13 | 82 | 1005.6 |
| 20260502103401 | 29 | 34 | 1.6 | 3.2 | 0.00 | 0.13 | 0.13 | 82 | 1005.7 |
| 20260502103201 | 29 | 52 | 3.2 | 6.4 | 0.00 | 0.13 | 0.13 | 82 | 1005.5 |
| 20260502103001 | 29 | 58 | 1.6 | 6.4 | 0.00 | 0.13 | 0.13 | 82 | 1005.7 |
| 20260502102801 | 30 | 58 | 1.6 | 6.4 | 0.00 | 0.13 | 0.13 | 81 | 1005.5 |
| 20260502102601 | 30 | 59 | 1.6 | 6.4 | 0.00 | 0.13 | 0.13 | 81 | 1005.6 |
| 20260502102401 | 30 | 53 | 0.0 | 6.4 | 0.00 | 0.13 | 0.13 | 81 | 1005.7 |
| 20260502102201 | 30 | 51 | 3.2 | 6.4 | 0.00 | 0.13 | 0.13 | 81 | 1005.6 |
| 20260502102002 | 30 | 50 | 3.2 | 6.4 | 0.00 | 0.13 | 0.13 | 80 | 1005.5 |
| 20260502101802 | 30 | 52 | 3.2 | 6.4 | 0.00 | 0.13 | 0.13 | 80 | 1005.6 |
| 20260502101601 | 30 | 50 | 0.0 | 6.4 | 0.00 | 0.13 | 0.13 | 80 | 1005.5 |
| 20260502101401 | 30 | 53 | 3.2 | 9.7 | 0.00 | 0.13 | 0.13 | 80 | 1005.5 |
| 20260502101201 | 30 | 62 | 3.2 | 9.7 | 0.00 | 0.13 | 0.13 | 80 | 1005.3 |
| 20260502101001 | 30 | 61 | 3.2 | 9.7 | 0.00 | 0.13 | 0.13 | 79 | 1005.4 |
| 20260502100801 | 30 | 64 | 1.6 | 9.7 | 0.00 | 0.13 | 0.13 | 79 | 1005.5 |
| 20260502100601 | 30 | 64 | 1.6 | 9.7 | 0.00 | 0.13 | 0.13 | 79 | 1005.6 |
| 20260502100402 | 30 | 68 | 4.8 | 9.7 | 0.00 | 0.13 | 0.13 | 79 | 1005.5 |
| 20260502100201 | 30 | 60 | 3.2 | 9.7 | 0.00 | 0.13 | 0.13 | 78 | 1005.5 |
| 20260502091401 | 31 | 52 | 4.8 | 11.3 | 0.00 | 0.13 | 0.13 | 73 | 1005.4 |
| 20260502091201 | 31 | 45 | 4.8 | 11.3 | 0.00 | 0.13 | 0.13 | 72 | 1005.5 |
| 20260502091002 | 31 | 45 | 6.4 | 11.3 | 0.00 | 0.13 | 0.13 | 71 | 1005.5 |
| 20260502090801 | 31 | 46 | 4.8 | 11.3 | 0.00 | 0.13 | 0.13 | 71 | 1005.4 |
| 20260502090601 | 31 | 51 | 4.8 | 11.3 | 0.00 | 0.13 | 0.13 | 71 | 1005.4 |
| 20260502090401 | 31 | 50 | 3.2 | 11.3 | 0.00 | 0.13 | 0.13 | 70 | 1005.6 |
| 20260502090201 | 31 | 50 | 4.8 | 11.3 | 0.00 | 0.13 | 0.13 | 71 | 1005.5 |
| 20260502071402 | 32 | 85 | 6.4 | 11.3 | 0.00 | 0.13 | 0.13 | 65 | 1006.2 |
| 20260502071202 | 32 | 82 | 3.2 | 11.3 | 0.00 | 0.13 | 0.13 | 65 | 1006.2 |
| 20260502071002 | 32 | 90 | 4.8 | 11.3 | 0.00 | 0.13 | 0.13 | 64 | 1006.2 |
| 20260502070802 | 32 | 95 | 6.4 | 11.3 | 0.00 | 0.13 | 0.13 | 64 | 1006.2 |
| 20260502070602 | 32 | 109 | 6.4 | 12.9 | 0.00 | 0.13 | 0.13 | 63 | 1006.3 |
| 20260502070402 | 32 | 112 | 3.2 | 12.9 | 0.00 | 0.13 | 0.13 | 65 | 1006.5 |
| 20260502070202 | 32 | 115 | 6.4 | 12.9 | 0.00 | 0.13 | 0.13 | 63 | 1006.4 |
| 20260502070002 | 32 | 115 | 6.4 | 12.9 | 0.00 | 0.13 | 0.13 | 63 | 1006.4 |
| 20260502065802 | 32 | 107 | 4.8 | 12.9 | 0.00 | 0.13 | 0.13 | 63 | 1006.6 |
| 20260502065602 | 32 | 97 | 8.0 | 12.9 | 0.00 | 0.13 | 0.13 | 62 | 1006.7 |
| 20260502065402 | 32 | 97 | 6.4 | 11.3 | 0.00 | 0.13 | 0.13 | 65 | 1006.6 |
| 20260502065202 | 32 | 100 | 3.2 | 9.7 | 0.00 | 0.13 | 0.13 | 65 | 1006.8 |
| 20260502065002 | 32 | 108 | 6.4 | 9.7 | 0.00 | 0.13 | 0.13 | 65 | 1006.8 |
| 20260502064802 | 32 | 107 | 4.8 | 9.7 | 0.00 | 0.13 | 0.13 | 67 | 1006.8 |
| 20260502064602 | 32 | 92 | 3.2 | 9.7 | 0.00 | 0.13 | 0.13 | 68 | 1006.8 |
| 20260502064402 | 32 | 61 | 6.4 | 9.7 | 0.00 | 0.13 | 0.13 | 67 | 1006.8 |
| 20260502064202 | 32 | 40 | 4.8 | 9.7 | 0.00 | 0.13 | 0.13 | 67 | 1006.8 |
| 20260502064002 | 32 | 1 | 4.8 | 9.7 | 0.00 | 0.13 | 0.13 | 66 | 1006.9 |
| 20260502063802 | 32 | 350 | 3.2 | 9.7 | 0.00 | 0.13 | 0.13 | 67 | 1007.1 |
| 20260502063602 | 32 | 357 | 3.2 | 9.7 | 0.00 | 0.13 | 0.13 | 68 | 1007.0 |
| 20260502063402 | 32 | 12 | 3.2 | 9.7 | 0.00 | 0.13 | 0.13 | 69 | 1007.3 |
| 20260502063202 | 32 | 27 | 3.2 | 9.7 | 0.00 | 0.13 | 0.13 | 71 | 1007.1 |
| 20260502063002 | 31 | 45 | 3.2 | 6.4 | 0.00 | 0.13 | 0.13 | 70 | 1007.2 |
| 20260502062802 | 31 | 53 | 4.8 | 6.4 | 0.00 | 0.13 | 0.13 | 69 | 1007.0 |
| 20260502062602 | 31 | 63 | 1.6 | 6.4 | 0.00 | 0.13 | 0.13 | 69 | 1007.1 |
| 20260502062402 | 31 | 53 | 3.2 | 6.4 | 0.00 | 0.13 | 0.13 | 69 | 1007.0 |
| 20260502062202 | 31 | 49 | 3.2 | 9.7 | 0.00 | 0.13 | 0.13 | 70 | 1007.2 |
| 20260502062002 | 31 | 46 | 3.2 | 9.7 | 0.00 | 0.13 | 0.13 | 71 | 1007.1 |
| 20260502061802 | 31 | 45 | 6.4 | 9.7 | 0.00 | 0.13 | 0.13 | 74 | 1007.2 |
| 20260502061602 | 30 | 45 | 3.2 | 9.7 | 0.00 | 0.13 | 0.13 | 75 | 1007.3 |
| 20260502061402 | 30 | 55 | 3.2 | 9.7 | 0.00 | 0.13 | 0.13 | 75 | 1007.4 |
| 20260502061202 | 30 | 62 | 6.4 | 9.7 | 0.00 | 0.13 | 0.13 | 75 | 1007.5 |
| 20260502061002 | 30 | 64 | 3.2 | 9.7 | 0.00 | 0.13 | 0.13 | 77 | 1007.5 |
| 20260502060802 | 30 | 70 | 6.4 | 9.7 | 0.00 | 0.13 | 0.13 | 78 | 1007.7 |
| 20260502060602 | 30 | 73 | 6.4 | 9.7 | 0.00 | 0.13 | 0.13 | 79 | 1007.7 |
| 20260502060402 | 30 | 71 | 3.2 | 9.7 | 0.00 | 0.13 | 0.13 | 81 | 1007.9 |
| 20260502060202 | 30 | 74 | 3.2 | 9.7 | 0.00 | 0.13 | 0.13 | 80 | 1008.0 |
| 20260502060002 | 30 | 76 | 3.2 | 9.7 | 0.00 | 0.13 | 0.13 | 80 | 1008.1 |
| 20260502055802 | 30 | 81 | 3.2 | 6.4 | 0.00 | 0.13 | 0.13 | 80 | 1007.9 |
| 20260502055602 | 30 | 75 | 1.6 | 6.4 | 0.00 | 0.13 | 0.13 | 80 | 1008.1 |
| 20260502055402 | 30 | 77 | 3.2 | 6.4 | 0.00 | 0.13 | 0.13 | 80 | 1008.1 |
| 20260502055202 | 29 | 71 | 3.2 | 6.4 | 0.00 | 0.13 | 0.13 | 80 | 1008.1 |
| 20260502055002 | 29 | 69 | 1.6 | 6.4 | 0.00 | 0.13 | 0.13 | 80 | 1008.2 |
| 20260502054802 | 29 | 59 | 4.8 | 6.4 | 0.00 | 0.13 | 0.13 | 79 | 1008.0 |
| 20260502054602 | 29 | 62 | 3.2 | 6.4 | 0.00 | 0.13 | 0.13 | 80 | 1008.2 |
| 20260502054402 | 29 | 59 | 3.2 | 6.4 | 0.00 | 0.13 | 0.13 | 79 | 1008.2 |
| 20260502054202 | 29 | 66 | 3.2 | 6.4 | 0.00 | 0.13 | 0.13 | 80 | 1008.1 |
| 20260502054002 | 29 | 76 | 3.2 | 6.4 | 0.00 | 0.13 | 0.13 | 82 | 1008.3 |
| 20260502053802 | 28 | 84 | 1.6 | 6.4 | 0.00 | 0.13 | 0.13 | 81 | 1008.2 |
| 20260502053602 | 28 | 94 | 4.8 | 6.4 | 0.00 | 0.13 | 0.13 | 81 | 1008.3 |
| 20260502053402 | 28 | 99 | 3.2 | 6.4 | 0.00 | 0.13 | 0.13 | 83 | 1008.4 |
| 20260502053202 | 28 | 104 | 4.8 | 6.4 | 0.00 | 0.13 | 0.13 | 83 | 1008.1 |
| 20260502053003 | 28 | 109 | 4.8 | 6.4 | 0.00 | 0.13 | 0.13 | 84 | 1008.3 |
| 20260502052802 | 28 | 120 | 3.2 | 6.4 | 0.00 | 0.13 | 0.13 | 85 | 1008.6 |
| 20260502052602 | 28 | 114 | 3.2 | 6.4 | 0.03 | 0.13 | 0.13 | 85 | 1008.3 |
| 20260502052402 | 28 | 111 | 1.6 | 6.4 | 0.03 | 0.13 | 0.13 | 86 | 1008.2 |
| 20260502052202 | 28 | 111 | 3.2 | 6.4 | 0.05 | 0.13 | 0.13 | 87 | 1008.5 |
| 20260502052002 | 28 | 100 | 6.4 | 6.4 | 0.05 | 0.13 | 0.13 | 87 | 1008.4 |
| 20260502051802 | 28 | 86 | 3.2 | 6.4 | 0.10 | 0.13 | 0.13 | 88 | 1008.6 |
| 20260502051602 | 28 | 83 | 3.2 | 6.4 | 0.10 | 0.13 | 0.13 | 88 | 1008.6 |
| 20260502051402 | 27 | 78 | 3.2 | 6.4 | 0.13 | 0.13 | 0.13 | 89 | 1008.5 |
| 20260502051202 | 27 | 71 | 3.2 | 9.7 | 0.13 | 0.13 | 0.13 | 88 | 1008.6 |
| 20260502051002 | 27 | 68 | 4.8 | 9.7 | 0.13 | 0.13 | 0.13 | 88 | 1008.8 |
| 20260502050802 | 27 | 73 | 3.2 | 9.7 | 0.13 | 0.13 | 0.13 | 89 | 1008.7 |
| 20260502050602 | 27 | 74 | 6.4 | 9.7 | 0.13 | 0.13 | 0.13 | 89 | 1008.8 |
| 20260502050402 | 27 | 74 | 4.8 | 9.7 | 0.13 | 0.13 | 0.13 | 90 | 1009.0 |
| 20260502050202 | 27 | 73 | 3.2 | 6.4 | 0.13 | 0.13 | 0.13 | 91 | 1008.9 |
| 20260502050002 | 27 | 73 | 3.2 | 6.4 | 0.13 | 0.13 | 0.13 | 92 | 1009.0 |
| 20260502045802 | 27 | 63 | 3.2 | 6.4 | 0.13 | 0.13 | 0.13 | 92 | 1009.0 |
| 20260502045602 | 27 | 59 | 3.2 | 6.4 | 0.13 | 0.13 | 0.13 | 92 | 1009.3 |
| 20260502045402 | 27 | 68 | 4.8 | 6.4 | 0.13 | 0.13 | 0.13 | 93 | 1009.2 |
| 20260502045202 | 26 | 71 | 3.2 | 6.4 | 0.13 | 0.13 | 0.13 | 93 | 1009.4 |
| 20260502045002 | 26 | 68 | 3.2 | 6.4 | 0.13 | 0.13 | 0.13 | 94 | 1009.1 |
| 20260502044802 | 26 | 68 | 3.2 | 6.4 | 0.13 | 0.13 | 0.13 | 94 | 1009.2 |
| 20260502044602 | 26 | 67 | 4.8 | 6.4 | 0.13 | 0.13 | 0.13 | 94 | 1009.2 |
| 20260502044402 | 26 | 56 | 3.2 | 6.4 | 0.13 | 0.13 | 0.13 | 94 | 1009.0 |
| 20260502044202 | 26 | 57 | 4.8 | 6.4 | 0.13 | 0.13 | 0.13 | 94 | 1009.2 |
| 20260502044002 | 26 | 60 | 4.8 | 9.7 | 0.13 | 0.13 | 0.13 | 94 | 1009.4 |
| 20260502043802 | 26 | 62 | 1.6 | 9.7 | 0.13 | 0.13 | 0.13 | 95 | 1009.2 |
| 20260502043602 | 26 | 61 | 3.2 | 12.9 | 0.13 | 0.13 | 0.13 | 94 | 1009.3 |
| 20260502043402 | 26 | 68 | 4.8 | 17.7 | 0.13 | 0.13 | 0.13 | 94 | 1009.4 |
| 20260502043202 | 26 | 68 | 4.8 | 20.9 | 0.13 | 0.13 | 0.13 | 94 | 1009.4 |
| 20260502043002 | 26 | 67 | 3.2 | 20.9 | 0.13 | 0.13 | 0.13 | 94 | 1009.5 |
| 20260502042802 | 26 | 69 | 6.4 | 20.9 | 0.13 | 0.13 | 0.13 | 93 | 1009.5 |
| 20260502042602 | 26 | 71 | 8.0 | 20.9 | 0.10 | 0.10 | 0.10 | 93 | 1009.4 |
| 20260502042402 | 26 | 74 | 11.3 | 20.9 | 0.10 | 0.10 | 0.10 | 92 | 1009.6 |
| 20260502042202 | 26 | 74 | 6.4 | 20.9 | 0.05 | 0.05 | 0.05 | 92 | 1009.9 |
| 20260502042002 | 26 | 72 | 8.0 | 24.1 | 0.05 | 0.05 | 0.05 | 92 | 1009.8 |
| 20260502041802 | 26 | 73 | 8.0 | 24.1 | 0.03 | 0.03 | 0.03 | 92 | 1009.5 |
| 20260502041602 | 27 | 72 | 3.2 | 24.1 | 0.03 | 0.03 | 0.03 | 92 | 1009.7 |
| 20260502041402 | 27 | 70 | 16.1 | 24.1 | 0.00 | 0.00 | 0.00 | 90 | 1009.7 |
| 20260502041202 | 27 | 70 | 12.9 | 24.1 | 0.00 | 0.00 | 0.00 | 90 | 1009.7 |
| 20260502041002 | 27 | 70 | 14.5 | 24.1 | 0.00 | 0.00 | 0.00 | 88 | 1009.7 |
| 20260502040802 | 28 | 74 | 12.9 | 24.1 | 0.00 | 0.00 | 0.00 | 87 | 1009.9 |
| 20260502040602 | 29 | 74 | 12.9 | 24.1 | 0.00 | 0.00 | 0.00 | 85 | 1009.9 |
| 20260502040402 | 30 | 78 | 12.9 | 24.1 | 0.00 | 0.00 | 0.00 | 83 | 1009.6 |
| 20260502040202 | 30 | 79 | 12.9 | 17.7 | 0.00 | 0.00 | 0.00 | 80 | 1009.8 |
| 20260502040002 | 31 | 84 | 8.0 | 12.9 | 0.00 | 0.00 | 0.00 | 79 | 1009.8 |
| 20260502035802 | 31 | 80 | 4.8 | 9.7 | 0.00 | 0.00 | 0.00 | 77 | 1010.0 |
| 20260502035602 | 31 | 70 | 6.4 | 9.7 | 0.00 | 0.00 | 0.00 | 76 | 1009.9 |
| 20260502035402 | 31 | 60 | 4.8 | 6.4 | 0.00 | 0.00 | 0.00 | 74 | 1010.0 |
| 20260502035202 | 31 | 27 | 3.2 | 6.4 | 0.00 | 0.00 | 0.00 | 74 | 1009.9 |
| 20260502035002 | 31 | 352 | 3.2 | 6.4 | 0.00 | 0.00 | 0.00 | 74 | 1009.9 |
| 20260502034802 | 31 | 331 | 3.2 | 6.4 | 0.00 | 0.00 | 0.00 | 74 | 1009.7 |
| 20260502034602 | 31 | 319 | 1.6 | 6.4 | 0.00 | 0.00 | 0.00 | 74 | 1009.6 |
| 20260502034402 | 31 | 307 | 3.2 | 6.4 | 0.00 | 0.00 | 0.00 | 74 | 1009.6 |
| 20260502034202 | 31 | 308 | 3.2 | 6.4 | 0.00 | 0.00 | 0.00 | 73 | 1009.5 |
| 20260502034002 | 31 | 305 | 4.8 | 6.4 | 0.00 | 0.00 | 0.00 | 73 | 1009.6 |
| 20260502033802 | 32 | 301 | 4.8 | 6.4 | 0.00 | 0.00 | 0.00 | 71 | 1009.7 |
| 20260502033602 | 32 | 294 | 6.4 | 6.4 | 0.00 | 0.00 | 0.00 | 70 | 1010.0 |
| 20260502033402 | 32 | 295 | 3.2 | 6.4 | 0.00 | 0.00 | 0.00 | 69 | 1009.8 |
| 20260502033202 | 32 | 284 | 3.2 | 6.4 | 0.00 | 0.00 | 0.00 | 69 | 1009.8 |
| 20260502033002 | 32 | 278 | 3.2 | 6.4 | 0.00 | 0.00 | 0.00 | 68 | 1009.8 |
| 20260502032802 | 32 | 272 | 3.2 | 9.7 | 0.00 | 0.00 | 0.00 | 68 | 1009.9 |
| 20260502032602 | 32 | 265 | 4.8 | 9.7 | 0.00 | 0.00 | 0.00 | 69 | 1009.9 |
| 20260502032402 | 32 | 248 | 3.2 | 9.7 | 0.00 | 0.00 | 0.00 | 70 | 1009.8 |
| 20260502032202 | 32 | 225 | 3.2 | 9.7 | 0.00 | 0.00 | 0.00 | 69 | 1009.7 |
| 20260502032002 | 33 | 174 | 6.4 | 9.7 | 0.00 | 0.00 | 0.00 | 67 | 1010.0 |
| 20260502031802 | 32 | 141 | 3.2 | 6.4 | 0.00 | 0.00 | 0.00 | 68 | 1009.9 |
| 20260502031602 | 32 | 119 | 3.2 | 6.4 | 0.00 | 0.00 | 0.00 | 70 | 1010.0 |
| 20260502031402 | 32 | 101 | 3.2 | 6.4 | 0.00 | 0.00 | 0.00 | 69 | 1009.9 |
| 20260502031202 | 32 | 98 | 4.8 | 6.4 | 0.00 | 0.00 | 0.00 | 69 | 1010.0 |
| 20260502031002 | 32 | 91 | 3.2 | 6.4 | 0.00 | 0.00 | 0.00 | 70 | 1009.9 |
| 20260502030802 | 32 | 64 | 4.8 | 6.4 | 0.00 | 0.00 | 0.00 | 69 | 1009.9 |
| 20260502030603 | 32 | 78 | 3.2 | 6.4 | 0.00 | 0.00 | 0.00 | 71 | 1010.0 |
| 20260502030402 | 32 | 109 | 3.2 | 6.4 | 0.00 | 0.00 | 0.00 | 70 | 1010.0 |
| 20260502030202 | 31 | 135 | 3.2 | 6.4 | 0.00 | 0.00 | 0.00 | 71 | 1009.8 |
| 20260502030002 | 31 | 150 | 1.6 | 6.4 | 0.00 | 0.00 | 0.00 | 72 | 1009.6 |
| 20260502025802 | 31 | 148 | 3.2 | 6.4 | 0.00 | 0.00 | 0.00 | 72 | 1010.0 |
| 20260502025602 | 31 | 160 | 6.4 | 6.4 | 0.00 | 0.00 | 0.00 | 72 | 1009.8 |
| 20260502025402 | 31 | 181 | 3.2 | 6.4 | 0.00 | 0.00 | 0.00 | 72 | 1009.9 |
| 20260502025202 | 31 | 212 | 3.2 | 6.4 | 0.00 | 0.00 | 0.00 | 73 | 1009.8 |
| 20260502025002 | 31 | 235 | 3.2 | 6.4 | 0.00 | 0.00 | 0.00 | 73 | 1009.9 |
| 20260502024802 | 31 | 242 | 3.2 | 6.4 | 0.00 | 0.00 | 0.00 | 72 | 1010.0 |
| 20260502024602 | 31 | 243 | 3.2 | 9.7 | 0.00 | 0.00 | 0.00 | 73 | 1009.9 |
| 20260502024402 | 32 | 238 | 3.2 | 9.7 | 0.00 | 0.00 | 0.00 | 72 | 1010.2 |
| 20260502024202 | 32 | 236 | 4.8 | 9.7 | 0.00 | 0.00 | 0.00 | 72 | 1009.9 |
| 20260502024003 | 31 | 221 | 0.0 | 9.7 | 0.00 | 0.00 | 0.00 | 74 | 1010.0 |
| 20260502023802 | 31 | 204 | 3.2 | 9.7 | 0.00 | 0.00 | 0.00 | 73 | 1009.9 |
| 20260502023602 | 31 | 107 | 4.8 | 9.7 | 0.00 | 0.00 | 0.00 | 73 | 1009.8 |
| 20260502023402 | 31 | 99 | 3.2 | 6.4 | 0.00 | 0.00 | 0.00 | 73 | 1009.8 |
| 20260502023202 | 31 | 101 | 1.6 | 9.7 | 0.00 | 0.00 | 0.00 | 75 | 1009.8 |
| 20260502023002 | 31 | 96 | 3.2 | 9.7 | 0.00 | 0.00 | 0.00 | 75 | 1009.7 |
| 20260502022802 | 31 | 98 | 3.2 | 9.7 | 0.00 | 0.00 | 0.00 | 75 | 1009.7 |
| 20260502022602 | 31 | 85 | 3.2 | 9.7 | 0.00 | 0.00 | 0.00 | 74 | 1009.7 |
| 20260502022402 | 31 | 77 | 3.2 | 9.7 | 0.00 | 0.00 | 0.00 | 74 | 1009.8 |
| 20260502022202 | 31 | 66 | 3.2 | 6.4 | 0.00 | 0.00 | 0.00 | 75 | 1009.9 |
| 20260502022002 | 31 | 79 | 1.6 | 6.4 | 0.00 | 0.00 | 0.00 | 75 | 1009.8 |
| 20260502021803 | 31 | 100 | 3.2 | 6.4 | 0.00 | 0.00 | 0.00 | 74 | 1009.8 |
| 20260502021602 | 31 | 128 | 3.2 | 6.4 | 0.00 | 0.00 | 0.00 | 75 | 1009.8 |
| 20260502021402 | 31 | 145 | 3.2 | 6.4 | 0.00 | 0.00 | 0.00 | 76 | 1009.7 |
| 20260502021202 | 31 | 150 | 1.6 | 6.4 | 0.00 | 0.00 | 0.00 | 77 | 1009.7 |
| 20260502021002 | 31 | 159 | 3.2 | 6.4 | 0.00 | 0.00 | 0.00 | 77 | 1009.7 |
| 20260502020802 | 31 | 154 | 1.6 | 6.4 | 0.00 | 0.00 | 0.00 | 78 | 1009.6 |
| 20260502020602 | 30 | 170 | 3.2 | 6.4 | 0.00 | 0.00 | 0.00 | 79 | 1009.6 |
| 20260502020402 | 30 | 184 | 3.2 | 6.4 | 0.00 | 0.00 | 0.00 | 79 | 1009.6 |
| 20260502020203 | 30 | 215 | 1.6 | 6.4 | 0.00 | 0.00 | 0.00 | 81 | 1009.7 |
| 20260502020002 | 30 | 272 | 1.6 | 3.2 | 0.00 | 0.00 | 0.00 | 83 | 1009.5 |
| 20260502015802 | 30 | 299 | 1.6 | 3.2 | 0.00 | 0.00 | 0.00 | 84 | 1009.7 |
| 20260502015602 | 30 | 316 | 0.0 | 3.2 | 0.00 | 0.00 | 0.00 | 85 | 1009.7 |
| 20260502015402 | 30 | 334 | 3.2 | 3.2 | 0.00 | 0.00 | 0.00 | 86 | 1009.7 |
| 20260502015202 | 29 | 349 | 0.0 | 3.2 | 0.00 | 0.00 | 0.00 | 87 | 1009.8 |
| 20260502015002 | 29 | 350 | 1.6 | 6.4 | 0.00 | 0.00 | 0.00 | 87 | 1009.6 |
| 20260502014802 | 28 | 350 | 3.2 | 6.4 | 0.00 | 0.00 | 0.00 | 88 | 1009.6 |
| 20260502014603 | 28 | 350 | 3.2 | 6.4 | 0.00 | 0.00 | 0.00 | 88 | 1009.6 |
| 20260502014402 | 28 | 341 | 3.2 | 6.4 | 0.00 | 0.00 | 0.00 | 89 | 1009.5 |
| 20260502014202 | 28 | 339 | 3.2 | 6.4 | 0.00 | 0.00 | 0.00 | 90 | 1009.7 |
| 20260502014002 | 28 | 348 | 1.6 | 6.4 | 0.00 | 0.00 | 0.00 | 91 | 1009.7 |
| 20260502013802 | 28 | 354 | 1.6 | 6.4 | 0.00 | 0.00 | 0.00 | 91 | 1009.5 |
| 20260502013602 | 28 | 350 | 0.0 | 6.4 | 0.00 | 0.00 | 0.00 | 91 | 1009.6 |
| 20260502013402 | 28 | 345 | 3.2 | 6.4 | 0.00 | 0.00 | 0.00 | 92 | 1009.4 |
| 20260502013202 | 28 | 331 | 1.6 | 6.4 | 0.00 | 0.00 | 0.00 | 93 | 1009.5 |
| 20260502013002 | 28 | 306 | 3.2 | 6.4 | 0.00 | 0.00 | 0.00 | 93 | 1009.6 |
| 20260502012802 | 28 | 292 | 3.2 | 6.4 | 0.00 | 0.00 | 0.00 | 93 | 1009.4 |
| 20260502012602 | 28 | 289 | 0.0 | 6.4 | 0.00 | 0.00 | 0.00 | 95 | 1009.6 |
| 20260502012402 | 28 | 290 | 1.6 | 6.4 | 0.00 | 0.00 | 0.00 | 94 | 1009.6 |
| 20260502012202 | 28 | 296 | 4.8 | 6.4 | 0.00 | 0.00 | 0.00 | 94 | 1009.6 |
| 20260502012002 | 28 | 309 | 1.6 | 3.2 | 0.00 | 0.00 | 0.00 | 95 | 1009.6 |
| 20260502011802 | 27 | 320 | 3.2 | 3.2 | 0.00 | 0.00 | 0.00 | 95 | 1009.6 |
| 20260502011602 | 27 | 321 | 3.2 | 3.2 | 0.00 | 0.00 | 0.00 | 95 | 1009.5 |
| 20260502011402 | 27 | 315 | 1.6 | 3.2 | 0.00 | 0.00 | 0.00 | 96 | 1009.7 |
| 20260502011202 | 27 | 298 | 1.6 | 6.4 | 0.00 | 0.00 | 0.00 | 96 | 1009.6 |
| 20260502011002 | 27 | 293 | 0.0 | 6.4 | 0.00 | 0.00 | 0.00 | 96 | 1009.5 |
| 20260502010802 | 27 | 282 | 3.2 | 6.4 | 0.00 | 0.00 | 0.00 | 96 | 1009.8 |
| 20260502010602 | 27 | 275 | 3.2 | 6.4 | 0.00 | 0.00 | 0.00 | 96 | 1009.6 |
| 20260502010402 | 27 | 272 | 3.2 | 6.4 | 0.00 | 0.00 | 0.00 | 97 | 1009.7 |
| 20260502010202 | 27 | 269 | 3.2 | 6.4 | 0.00 | 0.00 | 0.00 | 97 | 1009.6 |
| 20260502010003 | 27 | 259 | 1.6 | 3.2 | 0.00 | 0.00 | 0.00 | 97 | 1009.5 |
| 20260502005802 | 27 | 256 | 0.0 | 3.2 | 0.00 | 0.00 | 0.00 | 98 | 1009.6 |
| 20260502005602 | 26 | 264 | 1.6 | 3.2 | 0.00 | 0.00 | 0.00 | 98 | 1009.5 |
| 20260502005402 | 26 | 297 | 1.6 | 3.2 | 0.00 | 0.00 | 0.00 | 98 | 1009.2 |
| 20260502005202 | 27 | 350 | 3.2 | 6.4 | 0.00 | 0.00 | 0.00 | 97 | 1009.2 |
| 20260502005002 | 26 | 354 | 0.0 | 6.4 | 0.00 | 0.00 | 0.00 | 99 | 1009.3 |
| 20260502004802 | 26 | 335 | 0.0 | 6.4 | 0.00 | 0.00 | 0.00 | 99 | 1009.3 |
| 20260502004602 | 26 | 315 | 1.6 | 6.4 | 0.00 | 0.00 | 0.00 | 99 | 1009.4 |
| 20260502004402 | 26 | 292 | 0.0 | 6.4 | 0.00 | 0.00 | 0.00 | 99 | 1009.3 |
| 20260502004202 | 26 | 287 | 3.2 | 6.4 | 0.00 | 0.00 | 0.00 | 99 | 1009.0 |
| 20260502004002 | 26 | 284 | 0.0 | 6.4 | 0.00 | 0.00 | 0.00 | 99 | 1009.1 |
| 20260502003803 | 26 | 290 | 3.2 | 6.4 | 0.00 | 0.00 | 0.00 | 99 | 1009.2 |
| 20260502003602 | 25 | 299 | 0.0 | 6.4 | 0.00 | 0.00 | 0.00 | 99 | 1009.2 |
| 20260502003402 | 25 | 305 | 3.2 | 6.4 | 0.00 | 0.00 | 0.00 | 99 | 1009.1 |
| 20260502003202 | 25 | 302 | 3.2 | 6.4 | 0.00 | 0.00 | 0.00 | 99 | 1009.0 |
| 20260502003002 | 25 | 302 | 3.2 | 3.2 | 0.00 | 0.00 | 0.00 | 99 | 1009.0 |
| 20260502002802 | 25 | 295 | 3.2 | 6.4 | 0.00 | 0.00 | 0.00 | 99 | 1008.9 |
| 20260502002603 | 25 | 284 | 3.2 | 6.4 | 0.00 | 0.00 | 0.00 | 99 | 1008.8 |
| 20260502002402 | 25 | 276 | 1.6 | 6.4 | 0.00 | 0.00 | 0.00 | 99 | 1008.9 |
| 20260502002202 | 25 | 279 | 1.6 | 6.4 | 0.00 | 0.00 | 0.00 | 99 | 1008.8 |
| 20260502002003 | 25 | 280 | 0.0 | 6.4 | 0.00 | 0.00 | 0.00 | 99 | 1008.9 |
| 20260502001802 | 25 | 277 | 3.2 | 6.4 | 0.00 | 0.00 | 0.00 | 99 | 1008.9 |
| 20260502001602 | 25 | 272 | 3.2 | 6.4 | 0.00 | 0.00 | 0.00 | 99 | 1008.9 |
| 20260502001402 | 25 | 268 | 3.2 | 6.4 | 0.00 | 0.00 | 0.00 | 99 | 1008.8 |
| 20260502001202 | 25 | 256 | 3.2 | 6.4 | 0.00 | 0.00 | 0.00 | 99 | 1008.6 |
| 20260502001002 | 25 | 247 | 1.6 | 3.2 | 0.00 | 0.00 | 0.00 | 99 | 1008.8 |
| 20260502000802 | 25 | 247 | 3.2 | 6.4 | 0.00 | 0.00 | 0.00 | 99 | 1008.8 |
| 20260502000602 | 24 | 247 | 3.2 | 6.4 | 0.00 | 0.00 | 0.00 | 99 | 1008.7 |
| 20260502000402 | 24 | 247 | 1.6 | 6.4 | 0.00 | 0.00 | 0.00 | 99 | 1008.6 |
| 20260502000203 | 24 | 247 | 3.2 | 6.4 | 0.00 | 0.00 | 0.00 | 99 | 1008.8 |
| 20260502000003 | 24 | 247 | 3.2 | 6.4 | 0.00 | 0.00 | 0.00 | 99 | 1008.5 |
| 20260501235802 | 24 | 247 | 3.2 | 3.2 | 0.00 | 0.00 | 0.00 | 99 | 1008.5 |
| 20260501235602 | 24 | 247 | 1.6 | 3.2 | 0.00 | 0.00 | 0.00 | 99 | 1008.6 |
| 20260501235402 | 24 | 247 | 0.0 | 3.2 | 0.00 | 0.00 | 0.00 | 99 | 1008.4 |
| 20260501235202 | 24 | 247 | 0.0 | 3.2 | 0.00 | 0.00 | 0.00 | 99 | 1008.5 |
| 20260501235003 | 24 | 247 | 1.6 | 3.2 | 0.00 | 0.00 | 0.00 | 99 | 1008.6 |
| 20260501234802 | 23 | 247 | 1.6 | 3.2 | 0.00 | 0.00 | 0.00 | 99 | 1008.5 |
| 20260501234602 | 23 | 247 | 1.6 | 3.2 | 0.00 | 0.00 | 0.00 | 99 | 1008.3 |
| 20260501234402 | 23 | 247 | 1.6 | 3.2 | 0.00 | 0.00 | 0.00 | 99 | 1008.5 |
| 20260501234202 | 23 | 247 | 1.6 | 3.2 | 0.00 | 0.00 | 0.00 | 99 | 1008.4 |
| 20260501234003 | 23 | 247 | 0.0 | 3.2 | 0.00 | 0.00 | 0.00 | 99 | 1008.3 |
| 20260501233803 | 23 | 247 | 0.0 | 3.2 | 0.00 | 0.00 | 0.00 | 99 | 1008.2 |
| 20260501233602 | 23 | 247 | 0.0 | 3.2 | 0.00 | 0.00 | 0.00 | 99 | 1008.5 |
| 20260501233402 | 23 | 247 | 0.0 | 3.2 | 0.00 | 0.00 | 0.00 | 99 | 1008.0 |
| 20260501233202 | 23 | 247 | 0.0 | 3.2 | 0.00 | 0.00 | 0.00 | 99 | 1008.0 |
| 20260501233003 | 23 | 247 | 0.0 | 3.2 | 0.00 | 0.00 | 0.00 | 99 | 1008.0 |
| 20260501232803 | 23 | 247 | 0.0 | 3.2 | 0.00 | 0.00 | 0.00 | 99 | 1007.9 |
| 20260501232603 | 23 | 247 | 1.6 | 3.2 | 0.00 | 0.00 | 0.00 | 99 | 1008.3 |
| 20260501232403 | 23 | 247 | 1.6 | 3.2 | 0.00 | 0.00 | 0.00 | 99 | 1008.1 |
| 20260501232203 | 23 | 0 | 0.0 | 0.0 | 0.00 | 0.00 | 0.00 | 99 | 1008.0 |
| 20260501232003 | 23 | 0 | 0.0 | 0.0 | 0.00 | 0.00 | 0.00 | 99 | 1007.8 |
| 20260501231802 | 23 | 0 | 0.0 | 0.0 | 0.00 | 0.00 | 0.00 | 99 | 1008.2 |
| 20260501231603 | 23 | 0 | 0.0 | 0.0 | 0.00 | 0.00 | 0.00 | 99 | 1008.0 |
| 20260501231403 | 23 | 0 | 0.0 | 0.0 | 0.00 | 0.00 | 0.00 | 99 | 1007.9 |
| 20260501231202 | 23 | 0 | 0.0 | 0.0 | 0.00 | 0.00 | 0.00 | 99 | 1007.9 |
| 20260501231003 | 23 | 0 | 0.0 | 0.0 | 0.00 | 0.00 | 0.00 | 99 | 1007.9 |
| 20260501230803 | 23 | 0 | 0.0 | 0.0 | 0.00 | 0.00 | 0.00 | 99 | 1007.9 |
| 20260501230603 | 23 | 0 | 0.0 | 0.0 | 0.00 | 0.00 | 0.00 | 99 | 1008.0 |
| 20260501230403 | 23 | 0 | 0.0 | 0.0 | 0.00 | 0.00 | 0.00 | 99 | 1007.9 |
| 20260501230202 | 23 | 247 | 0.0 | 3.2 | 0.00 | 0.00 | 0.00 | 99 | 1007.9 |
| 20260501230003 | 23 | 247 | 0.0 | 3.2 | 0.00 | 0.00 | 0.00 | 99 | 1007.9 |
| 20260501225803 | 23 | 247 | 0.0 | 3.2 | 0.00 | 0.00 | 0.00 | 99 | 1007.9 |
| 20260501225602 | 23 | 247 | 0.0 | 3.2 | 0.00 | 0.00 | 0.00 | 99 | 1007.7 |
| 20260501225403 | 23 | 247 | 0.0 | 3.2 | 0.00 | 0.00 | 0.00 | 99 | 1007.7 |
| 20260501225202 | 23 | 247 | 1.6 | 3.2 | 0.00 | 0.00 | 0.00 | 99 | 1007.7 |
| 20260501225003 | 23 | 247 | 0.0 | 3.2 | 0.00 | 0.00 | 0.00 | 99 | 1007.5 |
| 20260501224803 | 23 | 247 | 0.0 | 3.2 | 0.00 | 0.00 | 0.00 | 99 | 1007.7 |
| 20260501224603 | 23 | 247 | 0.0 | 3.2 | 0.00 | 0.00 | 0.00 | 99 | 1007.8 |
| 20260501224403 | 23 | 247 | 0.0 | 3.2 | 0.00 | 0.00 | 0.00 | 99 | 1007.8 |
| 20260501224203 | 23 | 247 | 0.0 | 3.2 | 0.00 | 0.00 | 0.00 | 99 | 1007.8 |
| 20260501224003 | 23 | 247 | 0.0 | 3.2 | 0.00 | 0.00 | 0.00 | 99 | 1007.7 |
| 20260501223803 | 23 | 247 | 1.6 | 3.2 | 0.00 | 0.00 | 0.00 | 99 | 1007.6 |
| 20260501223603 | 23 | 247 | 1.6 | 3.2 | 0.00 | 0.00 | 0.00 | 99 | 1007.5 |
| 20260501223403 | 23 | 247 | 3.2 | 3.2 | 0.00 | 0.00 | 0.00 | 99 | 1007.5 |
| 20260501223203 | 23 | 247 | 3.2 | 3.2 | 0.00 | 0.00 | 0.00 | 99 | 1007.3 |
| 20260501223003 | 23 | 247 | 0.0 | 3.2 | 0.00 | 0.00 | 0.00 | 99 | 1007.4 |
| 20260501222803 | 23 | 247 | 0.0 | 3.2 | 0.00 | 0.00 | 0.00 | 99 | 1007.3 |
| 20260501222603 | 23 | 247 | 0.0 | 3.2 | 0.00 | 0.00 | 0.00 | 99 | 1007.5 |
| 20260501222403 | 23 | 247 | 0.0 | 3.2 | 0.00 | 0.00 | 0.00 | 99 | 1007.5 |
| 20260501222203 | 23 | 247 | 0.0 | 3.2 | 0.00 | 0.00 | 0.00 | 99 | 1007.2 |
| 20260501222003 | 23 | 247 | 0.0 | 3.2 | 0.00 | 0.00 | 0.00 | 99 | 1007.2 |
| 20260501221803 | 23 | 247 | 1.6 | 3.2 | 0.00 | 0.00 | 0.00 | 99 | 1007.3 |
| 20260501221603 | 23 | 247 | 0.0 | 3.2 | 0.00 | 0.00 | 0.00 | 99 | 1007.4 |
| 20260501221403 | 23 | 247 | 0.0 | 3.2 | 0.00 | 0.00 | 0.00 | 99 | 1007.2 |
| 20260501221203 | 23 | 247 | 0.0 | 3.2 | 0.00 | 0.00 | 0.00 | 99 | 1007.3 |
| 20260501221003 | 23 | 247 | 0.0 | 3.2 | 0.00 | 0.00 | 0.00 | 99 | 1007.2 |
| 20260501220803 | 23 | 247 | 0.0 | 3.2 | 0.00 | 0.00 | 0.00 | 99 | 1007.3 |
| 20260501220603 | 23 | 247 | 0.0 | 3.2 | 0.00 | 0.00 | 0.00 | 99 | 1007.3 |
| 20260501220403 | 23 | 247 | 0.0 | 3.2 | 0.00 | 0.00 | 0.00 | 99 | 1007.2 |
| 20260501220203 | 23 | 0 | 0.0 | 0.0 | 0.00 | 0.00 | 0.00 | 99 | 1007.3 |
| 20260501215803 | 23 | 0 | 0.0 | 0.0 | 0.00 | 0.00 | 0.00 | 99 | 1007.3 |
| 20260501215603 | 23 | 0 | 0.0 | 0.0 | 0.00 | 0.00 | 0.00 | 99 | 1007.3 |
| 20260501215403 | 23 | 0 | 0.0 | 0.0 | 0.00 | 0.00 | 0.00 | 99 | 1007.2 |
| 20260501215203 | 23 | 0 | 0.0 | 0.0 | 0.00 | 0.00 | 0.00 | 99 | 1007.2 |
| 20260501215003 | 23 | 0 | 0.0 | 0.0 | 0.00 | 0.00 | 0.00 | 99 | 1007.1 |
| 20260501214803 | 23 | 0 | 0.0 | 0.0 | 0.00 | 0.00 | 0.00 | 99 | 1007.2 |
| 20260501214603 | 23 | 0 | 0.0 | 0.0 | 0.00 | 0.00 | 0.00 | 99 | 1007.2 |
| 20260501214403 | 23 | 0 | 0.0 | 0.0 | 0.00 | 0.00 | 0.00 | 99 | 1007.0 |
| 20260501214203 | 23 | 0 | 0.0 | 0.0 | 0.00 | 0.00 | 0.00 | 99 | 1007.0 |
| 20260501214003 | 23 | 0 | 0.0 | 0.0 | 0.00 | 0.00 | 0.00 | 99 | 1007.1 |
| 20260501213803 | 23 | 0 | 0.0 | 0.0 | 0.00 | 0.00 | 0.00 | 99 | 1006.9 |
| 20260501213603 | 23 | 0 | 0.0 | 0.0 | 0.00 | 0.00 | 0.00 | 99 | 1007.0 |
| 20260501213403 | 23 | 0 | 0.0 | 0.0 | 0.00 | 0.00 | 0.00 | 99 | 1007.0 |
| 20260501213203 | 23 | 0 | 0.0 | 0.0 | 0.00 | 0.00 | 0.00 | 99 | 1006.8 |
| 20260501213003 | 23 | 0 | 0.0 | 0.0 | 0.00 | 0.00 | 0.00 | 99 | 1007.1 |
| 20260501212803 | 23 | 0 | 0.0 | 0.0 | 0.00 | 0.00 | 0.00 | 99 | 1006.9 |
| 20260501212603 | 23 | 0 | 0.0 | 0.0 | 0.00 | 0.00 | 0.00 | 99 | 1006.8 |
| 20260501212403 | 23 | 0 | 0.0 | 0.0 | 0.00 | 0.00 | 0.00 | 99 | 1006.9 |
| 20260501212203 | 23 | 0 | 0.0 | 0.0 | 0.00 | 0.00 | 0.00 | 99 | 1006.9 |
| 20260501212003 | 23 | 0 | 0.0 | 0.0 | 0.00 | 0.00 | 0.00 | 99 | 1006.9 |
| 20260501211803 | 23 | 0 | 0.0 | 0.0 | 0.00 | 0.00 | 0.00 | 99 | 1006.8 |
| 20260501211603 | 23 | 0 | 0.0 | 0.0 | 0.00 | 0.00 | 0.00 | 99 | 1006.9 |
| 20260501211403 | 23 | 0 | 0.0 | 0.0 | 0.00 | 0.00 | 0.00 | 99 | 1006.8 |
| 20260501211203 | 23 | 0 | 0.0 | 0.0 | 0.00 | 0.00 | 0.00 | 99 | 1007.0 |
| 20260501211003 | 23 | 0 | 0.0 | 0.0 | 0.00 | 0.00 | 0.00 | 99 | 1007.0 |
| 20260501210803 | 23 | 0 | 0.0 | 0.0 | 0.00 | 0.00 | 0.00 | 99 | 1007.1 |
| 20260501210603 | 23 | 0 | 0.0 | 0.0 | 0.00 | 0.00 | 0.00 | 99 | 1007.0 |
| 20260501210403 | 23 | 0 | 0.0 | 0.0 | 0.00 | 0.00 | 0.00 | 99 | 1007.0 |
| 20260501210203 | 23 | 0 | 0.0 | 0.0 | 0.00 | 0.00 | 0.00 | 99 | 1007.2 |
| 20260501210003 | 23 | 0 | 0.0 | 0.0 | 0.00 | 0.00 | 0.00 | 99 | 1006.9 |
| 20260501205803 | 23 | 0 | 0.0 | 0.0 | 0.00 | 0.00 | 0.00 | 99 | 1007.2 |
| 20260501205603 | 23 | 0 | 0.0 | 0.0 | 0.00 | 0.00 | 0.00 | 99 | 1007.0 |
| 20260501205403 | 23 | 0 | 0.0 | 0.0 | 0.00 | 0.00 | 0.00 | 99 | 1007.2 |
| 20260501205203 | 23 | 0 | 0.0 | 0.0 | 0.00 | 0.00 | 0.00 | 99 | 1007.0 |
| 20260501205003 | 23 | 0 | 0.0 | 0.0 | 0.00 | 0.00 | 0.00 | 99 | 1007.0 |
| 20260501204803 | 23 | 0 | 0.0 | 0.0 | 0.00 | 0.00 | 0.00 | 99 | 1007.1 |
| 20260501204603 | 23 | 0 | 0.0 | 0.0 | 0.00 | 0.00 | 0.00 | 99 | 1007.1 |
| 20260501204403 | 23 | 0 | 0.0 | 0.0 | 0.00 | 0.00 | 0.00 | 99 | 1007.2 |
| 20260501204203 | 23 | 0 | 0.0 | 0.0 | 0.00 | 0.00 | 0.00 | 99 | 1007.0 |
| 20260501204003 | 23 | 0 | 0.0 | 0.0 | 0.00 | 0.00 | 0.00 | 99 | 1007.2 |
| 20260501203803 | 23 | 0 | 0.0 | 0.0 | 0.00 | 0.00 | 0.00 | 99 | 1007.3 |
| 20260501203603 | 23 | 0 | 0.0 | 0.0 | 0.00 | 0.00 | 0.00 | 99 | 1007.5 |
| 20260501203403 | 23 | 0 | 0.0 | 0.0 | 0.00 | 0.00 | 0.00 | 99 | 1007.5 |
| 20260501203203 | 23 | 0 | 0.0 | 0.0 | 0.00 | 0.00 | 0.00 | 99 | 1007.3 |
| 20260501203003 | 23 | 0 | 0.0 | 0.0 | 0.00 | 0.00 | 0.00 | 99 | 1007.5 |
| 20260501202803 | 23 | 0 | 0.0 | 0.0 | 0.00 | 0.00 | 0.00 | 99 | 1007.3 |
| 20260501202603 | 23 | 0 | 0.0 | 0.0 | 0.00 | 0.00 | 0.00 | 99 | 1007.5 |
| 20260501202403 | 23 | 0 | 0.0 | 0.0 | 0.00 | 0.00 | 0.00 | 99 | 1007.4 |
| 20260501202203 | 23 | 0 | 0.0 | 0.0 | 0.00 | 0.00 | 0.00 | 99 | 1007.4 |
| 20260501202003 | 23 | 0 | 0.0 | 0.0 | 0.00 | 0.00 | 0.00 | 99 | 1007.4 |
| 20260501201803 | 23 | 0 | 0.0 | 0.0 | 0.00 | 0.00 | 0.00 | 99 | 1007.5 |
| 20260501201603 | 23 | 0 | 0.0 | 0.0 | 0.00 | 0.00 | 0.00 | 99 | 1007.3 |
| 20260501201403 | 23 | 0 | 0.0 | 0.0 | 0.00 | 0.00 | 0.00 | 99 | 1007.4 |
| 20260501201203 | 23 | 0 | 0.0 | 0.0 | 0.00 | 0.00 | 0.00 | 99 | 1007.5 |
| 20260501201003 | 23 | 0 | 0.0 | 0.0 | 0.00 | 0.00 | 0.00 | 99 | 1007.4 |
| 20260501200803 | 23 | 0 | 0.0 | 0.0 | 0.00 | 0.00 | 0.00 | 99 | 1007.6 |
| 20260501200603 | 23 | 0 | 0.0 | 0.0 | 0.00 | 0.00 | 0.00 | 99 | 1007.4 |
| 20260501200403 | 23 | 0 | 0.0 | 0.0 | 0.00 | 0.00 | 0.00 | 99 | 1007.6 |
| 20260501200203 | 23 | 0 | 0.0 | 0.0 | 0.00 | 0.00 | 0.00 | 99 | 1007.6 |
| 20260501200003 | 23 | 0 | 0.0 | 0.0 | 0.00 | 0.00 | 0.00 | 99 | 1007.5 |
| 20260501195803 | 23 | 0 | 0.0 | 0.0 | 0.00 | 0.00 | 0.00 | 99 | 1007.6 |
| 20260501195603 | 23 | 0 | 0.0 | 0.0 | 0.00 | 0.00 | 0.00 | 99 | 1007.6 |
| 20260501195403 | 23 | 0 | 0.0 | 0.0 | 0.00 | 0.00 | 0.00 | 99 | 1007.5 |
| 20260501195203 | 23 | 0 | 0.0 | 0.0 | 0.00 | 0.00 | 0.00 | 99 | 1007.8 |
| 20260501195003 | 23 | 0 | 0.0 | 0.0 | 0.00 | 0.00 | 0.00 | 99 | 1007.9 |